Location: Chevoux
(46.3801°N, 4.9476°E)
Time: 04:00:07
(UTC+00:00)

Envisat - Pass Details

Date: 02 December 2021
Orbit: 764 x 766 km, 98.2° (Epoch: 16 January)

Event Time Altitude Azimuth Distance (km) Brightness Sun altitude
Rises 03:26:48 0° 29° (NNE) 3,243 6.6 -36.7°
Reaches altitude 10° 03:29:56 10° 49° (NE) 2,311 6.0 -36.2°
Maximum altitude 03:33:14 17° 89° (E) 1,858 5.6 -35.6°
Drops below altitude 10° 03:36:30 10° 130° (SE) 2,298 5.9 -35.0°
Sets 03:39:36 0° 150° (SSE) 3,218 6.5 -34.5°
